Find Kosmos-1883

NORAD ID: 18355 Int'l Des: 1987-079 Owner: UNKS Country: SU Constellation: GLONASS operational
MEOCIRCULAR

Current View

Loading 3D Globe...

About Kosmos-1883

Kosmos-1883 (NORAD 18355) is a GLONASS constellation satellite launched Sep 16, 1987 by UNKS of SU. It operates in MEO, CIRCULAR orbit with a mass of 1300.00 kg.

About Kosmos-1883

Description loading...

Upcoming Passes

Passes for default location (London). Set your location on the main map for personalized predictions.

Altitude History

Loading altitude history...

Two-Line Element Set

1 18355U 87079A 26192.79068288 -.00000066 00000-0 00000-0 0 9994
2 18355 65.5791 317.9097 0004785 241.3589 102.6831 2.13100899302053
Epoch: Jul 11, 2026 • Age: 66 hours

Current Status

Altitude 19143.7 km
Apogee / Perigee N/A
Velocity 3.95 km/s
Sub-Earth Point -57.48°S, 146.18°E
Launch Date Sep 16, 1987
Age 38.8 years
Type other

Technical Details

Classification Payload
Mass 1300.00 kg
Dry Mass 1200.00 kg
Total Mass 1300.00 kg
Length 4.00 m
Diameter 1.50 m
Span 7.80 m
Shape Cyl + Ant + 2 Pan
Manufacturer OAZ
Bus Type Uragan
Phase Status In Orbit
Owner/State UNKS/SU

Most Searched